sat.trackr.live / text

‹ back to catalog

YAOGAN-27

NORAD 40878 · 2015-040A

PAYLOAD ACTIVE UNKNOWN

§ Identity

Operator
Country
PRC
Launch date
2015-08-27
Launch site
TAISC
Launch vehicle
Mass (kg)
RCS (m²)
3.09

Purposes: earth_obs

External: N2YO · Heavens-Above · Gunter

§ Orbital elements

Epoch: 2026-05-25T05:20:07.238400Z

Period
109.42 min
Inclination
100.1152°
Eccentricity
0.0007437
Mean motion
13.16069917 rev/d
Perigee alt
1,194.1 km
Apogee alt
1,205.4 km
Semi-major
7,577.9 km
B*
2.7629e-4
RAAN
132.6033°
Arg perigee
268.8382°
Mean anomaly
91.1880°
Rev number
51,464

§ Raw data

YAOGAN-271 40878U 15040A   26145.22230600  .00000062  00000+0  27629-3 0  99962 40878 100.1152 132.6033 0007437 268.8382  91.1880 13.16069917514645

JSON: /api/v1/satellites/40878 · /tle

For live sub-satellite position, see the globe view (requires WebGL).

§ Visibility from observer

Set your observer location to see the next 7 days of passes ≥ 10°. The values pass through the URL so the page stays shareable.

No JS? Fill the form by hand. The geolocation button needs JavaScript.